{"data":{"norad_id":51135,"intl_designator":"2022-005AH","name":"STARLINK-3363","alt_names":[],"object_type":"PAYLOAD","status":"ACTIVE","operator":null,"country":"US","launch_date":"2022-01-19","launch_site_code":"AFETR","launch_vehicle":null,"mission":null,"orbit_class":"UNKNOWN","rcs_meters":null,"size_class":null,"mass_kg":null,"dimensions":null,"purposes":["comms"],"wikipedia_slug":null,"has_3d_model":false,"image_url":null,"decayed_at":null,"tle_current":{"epoch":"2026-05-24T18:15:56.103264Z","epoch_age_seconds":98720,"freshness":"FRESH","line1":"1 51135U 22005AH  26144.76106601 -.00006490  00000+0 -38971-3 0  9999","line2":"2 51135  53.2141 317.5177 0001670  89.9591 270.1592 15.08868152240218","mean_motion":15.08868152,"eccentricity":0.000167,"inclination_deg":53.2141,"raan_deg":317.5177,"arg_perigee_deg":89.9591,"mean_anomaly_deg":270.1592,"bstar":-0.00038971,"rev_number":24021,"period_min":95.435774033091,"perigee_km":538.50206924546,"apogee_km":540.81261255532,"semimajor_km":6917.7943409004,"source":"CELESTRAK","updated_at":"2026-05-25T13:38:16.913183Z"}}}